Powrót do katalogu

DELTA 1 DEB

AktywnySSO
NORAD 7142·DEBRIS·🇺🇸 United States

Wystrzelony Nov 6, 1973 z Vandenberg Space Force Base

Loading…

Następne Przeloty (najbliższe 24 godziny)

TLE

ŚwieżeSource: Space-Track

Epoka: Sep 14, 2026, 09:28 UTC

1 07142U 73086DG  26257.39477069 -.00000015  00000-0  23119-3 0  9991
2 07142 101.8496 224.1501 0043932 220.4858 293.2708 12.32092652376504

Śledź DELTA 1 DEB w czasie rzeczywistym z AllMySat

Download on the App Store